Tracking 29511 objects as of 15-Sep-2024
HD Live streaming from Space Station
objects crossing your sky now

GALAXY 9

Track GALAXY 9 now!
GALAXY 9 is classified as:


NORAD ID: 23877
Int'l Code: 1996-033A
Perigee: 35,951.9 km
Apogee: 36,048.7 km
Inclination: 11.0 °
Period: 1,446.7 minutes
Semi major axis: 42371 km
RCS: 8.797 m2 (large)
Launch date: May 24, 1996
Source: United States (US)
Launch site: AIR FORCE EASTERN TEST RANGE (AFETR)

Voice and vision communication; 24 C-band; North America, Caribbean.
Your satellite tracking list
Your tracking list is empty




NASA's NSSDC Master Catalog

Two Line Element Set (TLE):
1 23877U 96033A   24258.57418615  .00000086  00000-0  00000-0 0  9990
2 23877  11.0240  37.1727 0011423 148.2835 230.2238  0.99539607 39983
Source of the keplerian elements: AFSPC